Flag for Brazil Weather past 2 weeks in Porto Alegre, Rio Grande do Sul, Brazil

Now
68 °F

Partly sunny.


Feels Like: 68 °F
Forecast: 59 / 71 °F
Wind: 13 mph from West

Location: Porto Alegre Aero-Porto

Current Time: Sep 20, 2014 at 1:47:42 PM

Latest Report: Sep 20, 2014 at 10:00 AM


Visibility: N/A

Pressure: 29.92 "Hg

Humidity: 83%

Dew point: 63 °F

Location of Porto AlegreLocation

Historic Weather in Porto Alegre — Graph

°F

Porto Alegre temperature yesterday

Maximum temperature yesterday: 77 °F (at 2:00 PM)
Minimum temperature yesterday: 64 °F (at 2:00 AM)
Average temperature yesterday: 70 °F

Past Weeks' High & Low Weather Summary

 TemperatureHumidityPressure
High91 °F (Sep 9, 3:00 PM)100% (Sep 8, 5:00 AM)30.18 "Hg (Sep 8, 5:00 AM)
Low37 °F (Sep 17, 8:00 AM)36% (Sep 9, 4:00 PM)29.62 "Hg (Sep 10, 4:00 AM)
Average66 °F81%29.97 "Hg
* Reported Sep 5 10:00 AM — Sep 20 10:00 AM, Porto Alegre, Weather by CustomWeather, © 2014

Note: Actual official high and low records may vary slightly from our data, if they occured in-between our weather recording intervals... More about our weather records

Advertising

Porto Alegre weather history for previous 24 hours

 ConditionsComfort  
Time TempWeatherWind HumidityBarometerVisibility
10:00 AM
Sep 20
68 °FPartly sunny.13 mph83%29.92 "HgN/A
9:00 AM68 °FPartly sunny.12 mph88%29.92 "HgN/A
8:00 AM66 °FLow clouds.9 mph94%29.89 "Hg5 mi
7:00 AM64 °FPartly sunny.8 mph94%29.86 "HgN/A
6:00 AM64 °FPartly sunny.6 mph94%29.86 "HgN/A
5:00 AM64 °FPassing clouds.6 mph94%29.83 "HgN/A
4:00 AM66 °FPartly cloudy.5 mph88%29.83 "HgN/A
3:00 AM66 °FClear.6 mph88%29.83 "Hg10 mi
2:00 AM66 °FClear.6 mph94%29.83 "Hg10 mi
1:00 AM66 °FClear.5 mph94%29.83 "Hg6 mi
12:00 AM66 °FPassing clouds.2 mph94%29.83 "Hg6 mi
11:00 PM
Sep 19
68 °FMostly cloudy.5 mph88%29.83 "Hg5 mi
10:00 PM70 °FPassing clouds.2 mph83%29.83 "HgN/A
9:00 PM70 °FPassing clouds.6 mph83%29.80 "HgN/A
8:00 PM72 °FPartly cloudy.5 mph73%29.80 "HgN/A
7:00 PM72 °FPassing clouds.5 mph78%29.77 "HgN/A
6:00 PM73 °FPassing clouds.6 mph69%29.77 "HgN/A
5:00 PM73 °FScattered clouds.7 mph74%29.77 "HgN/A
4:00 PM73 °FPartly sunny.9 mph69%29.80 "HgN/A
3:00 PM75 °FPartly sunny.8 mph65%29.80 "HgN/A
2:00 PM77 °FPartly sunny.7 mph61%29.80 "HgN/A
1:00 PM75 °FPassing clouds.3 mph61%29.83 "HgN/A
Weather by CustomWeather, © 2014

See weather overviewHow to use our weather pages